Simultaneous Nadir Overpasses (SNOs) Predictions

Prediction of SNOs between GOES-15 and METOP-C Satellite Orbit:

Table of predicted SNOs for the next 14.0 days since TLE Epoch: 12/26/2022
Index Date Time (GOES-15) GOES-15 Lat,Lon METOP-C Lat,Lon Distance(km) Time Diff (sec)
1 12/26/2022 05:56:31 0.08,-127.57 0.23,-126.87 78.95 80
2 12/27/2022 18:15:23 -0.07,-127.56 0.77,-131.44 441.47 80
3 12/28/2022 17:57:24 -0.07,-127.59 -0.35,-126.44 131.87 80
4 12/30/2022 06:16:23 0.06,-127.71 -0.70,-131.03 378.37 80
5 12/31/2022 05:53:04 0.07,-127.75 0.47,-126.05 194.38 80
6 01/01/2023 18:11:56 -0.06,-127.73 0.56,-130.60 326.66 80
7 01/02/2023 17:53:56 -0.06,-127.76 -0.57,-125.61 246.24 80
8 01/04/2023 06:12:56 0.06,-127.88 -0.44,-130.20 264.68 80
9 01/05/2023 05:49:37 0.06,-127.90 0.68,-125.21 307.49 80
10 01/06/2023 18:08:27 -0.05,-127.87 0.38,-129.76 214.70 80
11 01/07/2023 17:50:28 -0.05,-127.90 -0.75,-124.76 357.65 80
